Location: *
(49.9853°N, 3.5569°E)
Time: 03:13:51
(UTC+00:00)

USA 116 - Pass Details

Date: 22 September 2019
Orbit: 405 x 834 km, 97.9° (Epoch: 18 November)

Event Time Altitude Azimuth Distance (km) Brightness Sun altitude
Rises 18:22:15 0° 13° (NNE) 2,806 7.3 -6.8°
Reaches altitude 10° 18:24:32 10° 12° (NNE) 1,834 6.4 -7.2°
Maximum altitude 18:28:27 82° 287° (WNW) 513 3.6 -7.8°
Drops below altitude 10° 18:31:55 10° 198° (SSW) 1,618 6.2 -8.4°
Sets 18:33:49 0° 198° (SSW) 2,441 7.1 -8.7°
